This demonstration page uses our WeatherBlox Daily Observations layout. Learn more.

Left ArrowRight Arrow

Hourly Observations for January 12, 2017

Temp ( °F °C ) Dew Point ( °F °C ) Humidity (%) Winds ( mph kmh ) Pressure ( in mb ) Visibility ( mi km ) Precip ( " mm )
12:15 am 00:15 Partly Cloudy 59 15 55 13 88 88 SSW 21 33 29.77 1008 10 16 N/A
12:35 am 00:35 Mostly Cloudy 61 16 55 13 83 83 SW 21 33 29.77 1008 10 16 N/A
12:55 am 00:55 Cloudy 63 17 55 13 77 77 SW 22 35 29.77 1008 10 16 N/A
1:15 am 01:15 Cloudy 63 17 55 13 77 77 SW 20 31 29.77 1008 10 16 N/A
1:35 am 01:35 Cloudy 63 17 55 13 77 77 SW 26 43 29.77 1008 10 16 N/A
1:55 am 01:55 Cloudy 63 17 55 13 77 77 SW 28 44 29.77 1008 10 16 N/A
2:15 am 02:15 Cloudy 63 17 55 13 77 77 SW 22 35 29.80 1009 10 16 N/A
2:35 am 02:35 Cloudy 64 18 55 13 73 73 SW 24 39 29.80 1009 10 16 N/A
2:55 am 02:55 Cloudy 64 18 55 13 73 73 SW 23 37 29.80 1009 10 16 N/A
3:15 am 03:15 Cloudy 63 17 55 13 77 77 SW 26 43 29.80 1009 10 16 N/A
3:35 am 03:35 Cloudy 63 17 55 13 77 77 SW 22 35 29.83 1010 10 16 N/A
3:55 am 03:55 Cloudy 63 17 55 13 77 77 SW 20 31 29.83 1010 10 16 N/A
4:15 am 04:15 Cloudy 64 18 55 13 73 73 SW 23 37 29.83 1010 10 16 N/A
4:35 am 04:35 Cloudy 63 17 55 13 77 77 SW 25 41 29.83 1010 10 16 N/A
4:55 am 04:55 Cloudy 63 17 57 14 83 83 SW 18 30 29.83 1010 10 16 N/A
5:15 am 05:15 Cloudy 63 17 55 13 77 77 SW 16 26 29.83 1010 10 16 N/A
5:35 am 05:35 Cloudy 61 16 57 14 88 88 SW 18 30 29.83 1010 7 11 N/A
5:55 am 05:55 Cloudy 59 15 57 14 94 94 WSW 13 20 29.83 1010 3 5 N/A
6:15 am 06:15 Cloudy 59 15 57 14 94 94 SW 16 26 29.83 1010 4 6 N/A
6:34 am 06:34 Cloudy 59 15 57 14 94 94 SW 21 33 29.83 1010 5 8 N/A
6:55 am 06:55 Cloudy 59 15 57 14 94 94 SW 18 30 29.83 1010 5 8 N/A
7:15 am 07:15 Cloudy 59 15 57 14 94 94 SW 18 30 29.83 1010 10 16 N/A
7:35 am 07:35 Cloudy 61 16 57 14 88 88 SW 14 22 29.83 1010 10 16 N/A
7:55 am 07:55 Cloudy 61 16 57 14 88 88 SW 15 24 29.83 1010 10 16 N/A
8:15 am 08:15 Cloudy 61 16 57 14 88 88 SW 22 35 29.83 1010 10 16 N/A
8:35 am 08:35 Cloudy 61 16 57 14 88 88 SW 17 28 29.83 1010 10 16 N/A
8:55 am 08:55 Cloudy 61 16 57 14 88 88 SW 18 30 29.83 1010 10 16 N/A
9:15 am 09:15 Cloudy 63 17 57 14 83 83 SW 20 31 29.83 1010 10 16 N/A
9:35 am 09:35 Cloudy 63 17 57 14 83 83 SW 28 44 29.85 1011 10 16 N/A
9:55 am 09:55 Cloudy 63 17 57 14 83 83 SW 24 39 29.88 1012 10 16 N/A
10:15 am 10:15 Cloudy 63 17 59 15 88 88 SW 26 43 29.88 1012 10 16 N/A
10:35 am 10:35 Cloudy 63 17 57 14 83 83 SW 21 33 29.88 1012 10 16 N/A
10:55 am 10:55 Cloudy 63 17 57 14 83 83 WSW 17 28 29.91 1013 7 11 N/A
11:15 am 11:15 Cloudy 45 7 43 6 93 93 NNW 16 26 30.00 1016 1 2 N/A
11:35 am 11:35 Cloudy 41 5 41 5 100 100 NNW 13 20 30.00 1016 7 11 N/A
11:54 am 11:54 Cloudy 41 5 41 5 100 100 NNW 12 19 30.00 1016 7 11 N/A
12:15 pm 12:15 Cloudy 41 5 39 4 93 93 NNW 10 17 30.03 1017 7 11 N/A
12:35 pm 12:35 Cloudy 41 5 39 4 93 93 NW 12 19 30.03 1017 10 16 N/A
12:55 pm 12:55 Cloudy 41 5 39 4 93 93 NW 12 19 30.03 1017 5 8 N/A
1:15 pm 13:15 Cloudy 39 4 37 3 93 93 NNW 16 26 30.06 1018 4 6 N/A
1:35 pm 13:35 Cloudy 37 3 36 2 93 93 NW 14 22 30.09 1019 7 11 N/A
1:55 pm 13:55 Cloudy 37 3 36 2 93 93 NNW 13 20 30.12 1020 10 16 N/A
2:15 pm 14:15 Cloudy 37 3 34 1 87 87 NNW 14 22 30.12 1020 10 16 N/A
2:35 pm 14:35 Cloudy 36 2 34 1 93 93 NNW 14 22 30.15 1021 10 16 N/A
2:55 pm 14:55 Cloudy 36 2 34 1 93 93 NNW 14 22 30.15 1021 10 16 N/A
3:15 pm 15:15 Cloudy 36 2 34 1 93 93 NW 10 17 30.18 1022 10 16 N/A
3:35 pm 15:35 Cloudy 37 3 34 1 87 87 NW 9 15 30.21 1023 10 16 N/A
3:55 pm 15:55 Cloudy 37 3 34 1 87 87 NW 9 15 30.21 1023 10 16 N/A
4:15 pm 16:15 Cloudy 37 3 34 1 87 87 NW 8 13 30.24 1024 10 16 N/A
4:35 pm 16:35 Cloudy 37 3 34 1 87 87 NNW 12 19 30.24 1024 10 16 N/A
4:55 pm 16:55 Cloudy 36 2 34 1 93 93 NNW 10 17 30.24 1024 10 16 N/A
5:15 pm 17:15 Cloudy 36 2 32 undefined 87 87 NW 12 19 30.24 1024 10 16 N/A
5:35 pm 17:35 Cloudy 36 2 32 undefined 87 87 NNW 14 22 30.27 1025 10 16 N/A
5:55 pm 17:55 Cloudy 36 2 32 undefined 87 87 NNW 14 22 30.27 1025 10 16 N/A
6:15 pm 18:15 Cloudy 34 1 32 undefined 93 93 NNW 14 22 30.30 1026 10 16 N/A
6:35 pm 18:35 Cloudy 34 1 32 undefined 93 93 NNW 16 26 30.30 1026 10 16 N/A
6:55 pm 18:55 Cloudy 34 1 30 -1 87 87 NW 14 22 30.33 1027 10 16 N/A
7:15 pm 19:15 Cloudy 34 1 30 -1 87 87 NNW 14 22 30.36 1028 10 16 N/A
7:35 pm 19:35 Cloudy 32 undefined 30 -1 93 93 NW 12 19 30.36 1028 10 16 N/A
7:55 pm 19:55 Cloudy 32 undefined 28 -2 87 87 NW 10 17 30.39 1029 10 16 N/A
8:15 pm 20:15 Cloudy 32 undefined 28 -2 87 87 NNW 13 20 30.39 1029 10 16 N/A
8:55 pm 20:55 Cloudy 30 -1 28 -2 93 93 NNW 16 26 30.42 1030 10 16 N/A
9:15 pm 21:15 Cloudy 30 -1 28 -2 93 93 NNW 10 17 30.42 1030 10 16 N/A
9:35 pm 21:35 Cloudy 30 -1 28 -2 93 93 NW 9 15 30.42 1030 10 16 N/A
9:55 pm 21:55 Cloudy 30 -1 28 -2 93 93 NW 10 17 30.45 1031 10 16 N/A
10:14 pm 22:14 Cloudy 30 -1 27 -3 86 86 NW 9 15 30.45 1031 10 16 N/A
10:35 pm 22:35 Cloudy 30 -1 27 -3 86 86 NNW 9 15 30.45 1031 10 16 N/A
10:55 pm 22:55 Cloudy 30 -1 27 -3 86 86 NNW 9 15 30.48 1032 10 16 N/A
11:35 pm 23:35 Cloudy 30 -1 27 -3 86 86 NW 9 15 30.48 1032 10 16 N/A
11:55 pm 23:55 Cloudy 30 -1 27 -3 86 86 NNW 9 15 30.48 1032 10 16 N/A

Powered by AerisWeather